Location: Berlin
(52.5171°N, 13.3759°E)
Time: 20:14:31
(UTC+01:00)

ISS - Pass Details

Date: 10 January 2018
Orbit: 401 x 407 km, 51.6° (Epoch: 17 January)

Event Time Altitude Azimuth Distance (km) Brightness Sun altitude
Exits shadow 06:32:23 25° 251° (WSW) 855 -2.7 -14.6°
Maximum altitude 06:33:39 36° 205° (SSW) 657 -2.9 -14.4°
Drops below altitude 10° 06:36:43 10° 136° (SE) 1,464 0.0 -13.9°
Sets 06:38:52 0° 128° (SE) 2,322 1.5 -13.6°
